Regional Weather Roundup
Issued by NWS

Home | Current Version | Previous Version | Graphics & Text | Print | Product List | Glossary On
Versions: 1 2 3 4 5 6 7 8 9 10 11 12 13 14 15 16 17 18 19 20 21 22 23 24 25 26 27 28 29 30 31 32 33 34 35 36 37 38 39 40 41 42 43 44 45 46 47 48 49 50
000
ASUS45 KTFX 020904
RWRMT
MONTANA REGIONAL WEATHER ROUNDUP
NATIONAL WEATHER SERVICE GREAT FALLS MT
300 AM MDT WED SEP 02 2015

NOTE: "FAIR" INDICATES FEW OR NO CLOUDS BELOW 12000 FEET WITH NO
SIGNIFICANT WEATHER AND/OR OBSTRUCTIONS TO VISIBILITY.

MTZ001>007-043-021000-
WEST OF THE DIVIDE

CITY           SKY/WX    TMP DP  RH WIND       PRES   REMARKS
KALISPELL      CLOUDY    53  39  59 CALM      29.75S
MISSOULA       MOCLDY    53  38  56 N3        29.77F
BUTTE          MOCLDY    47  34  60 E7        29.90F
MULLAN PASS    CLOUDY    50  31  48 VRB3      29.88F
DEER LODGE       N/A     48  36  61 W3        29.88S
EUREKA           N/A     54  43  66 CALM      29.73S
HAMILTON         N/A     54  41  62 S3        29.78F
LIBBY            N/A     52  37  58 CALM      29.74S
$$

MTZ008-052>055-021000-
SOUTHWEST MONTANA

CITY           SKY/WX    TMP DP  RH WIND       PRES   REMARKS
BOZEMAN        CLEAR     57  36  45 CALM      29.82F
DILLON         CLEAR     56  27  32 S8        29.86S
W YELLOWSTONE  PTCLDY    41  28  60 SW7       30.04S
$$

MTZ009-010-012-014-046-048-049-054-021000-
EAST SLOPES AND CENTRAL MONTANA

CITY           SKY/WX    TMP DP  RH WIND       PRES   REMARKS
CUT BANK       CLOUDY    56  32  40 SE8       29.76S
GREAT FALLS    MOCLDY    54  33  45 SW8       29.73F
HELENA         PTCLDY    59  34  39 CALM      29.78S
$$

MTZ011-013-016-021-045-047-050-051-021000-
NORTH CENTRAL MONTANA

CITY           SKY/WX    TMP DP  RH WIND       PRES   REMARKS
HAVRE          CLOUDY    56  42  59 SE3       29.70F
LEWISTOWN      CLEAR     60  37  42 CALM      29.76S
N BAR RANCH      N/A     63  37  39 VRB5      29.83S
CHINOOK          N/A     55  41  58 SW6       29.72R
FORT BENTON      N/A     63  36  36 CALM      29.70F
$$

MTZ017>020-022>027-061-062-021000-
NORTHEAST MONTANA

CITY           SKY/WX    TMP DP  RH WIND       PRES   REMARKS
GLASGOW        CLEAR     61  40  45 E14       29.73F
JORDAN           N/A     50  37  61 CALM      29.74F
SIDNEY         CLEAR     57  39  51 NW5       29.76S
WOLF POINT     CLEAR     53  44  71 E5        29.76S
PLENTYWOOD       N/A     63  41  45 CALM      29.78F
POPLAR           N/A     55  43  62 N6        29.76F
$$

MTZ028>42-056>058-021000-
SOUTHCENTRAL AND SOUTHEAST MONTANA

CITY           SKY/WX    TMP DP  RH WIND       PRES   REMARKS
BAKER          CLEAR     60  52  74 SE8       29.82S
BILLINGS       PTCLDY    67  33  28 SW12      29.78S
LIVINGSTON     PTCLDY    59  31  34 VRB3      29.83S
MILES CITY     CLEAR     62  40  44 NE10      29.73F
FORSYTH          N/A     63  36  36 E7        29.73S
$$

REGIONAL REPORTS...DAKOTAS

CITY           SKY/WX    TMP DP  RH WIND       PRES   REMARKS
WILLISTON      CLEAR     60  45  57 N8        29.77F
MINOT          CLEAR     61  59  93 CALM      29.76F
DICKINSON      CLEAR     58  53  84 SW3       29.80S
BISMARCK       CLEAR     65  63  93 E6        29.79R
GRAND FORKS    CLEAR     64  60  87 SE6       29.81S
FARGO          CLEAR     71  68  90 SE7       29.83S
BUFFALO SD       N/A     63  54  72 E7        29.77F
RAPID CITY     CLEAR     59  50  72 N5        29.84F
$$

REGIONAL REPORTS...WYOMING/IDAHO/WASHINGTON

CITY           SKY/WX    TMP DP  RH WIND       PRES   REMARKS
GILLETTE       MOCLDY    74  41  30 SW16      29.87S
SHERIDAN       PTCLDY    58  39  49 S5        29.85R
BUFFALO WY     MOCLDY    76  37  24 W18       29.92R
CODY           CLEAR     64  30  27 SW5       29.92F
YELLOWSTONE LA   N/A     48  33  56 VRB6      30.15F
IDAHO FALLS    CLEAR     67  40  37 SE10      29.89F
SALMON         PTCLDY    50  37  62 CALM      29.80S
BOISE          PTCLDY    68  37  32 SE9       29.76R
SPOKANE        CLOUDY    61  43  51 S15       29.73S
$$

REGIONAL REPORTS...ALBERTA

CITY           SKY/WX    TMP DP  RH WIND       PRES   REMARKS
$$

REGIONAL REPORTS...SASKATCHEWAN

CITY           SKY/WX    TMP DP  RH WIND       PRES   REMARKS
$$


USA.gov is the U.S. government's official web portal to all federal, state and local government web resources and services.